📊 Raw Sensor Data
Showing records 32526 to 32550 of 84,707 total
| ID | Distance (ft) | Battery V | Battery A | Int Temp (°F) | Int Humid (%) | Ext Temp (°F) | Solar V | RSSI | SNR | Time Stamp |
|---|---|---|---|---|---|---|---|---|---|---|
| 52194 | 14.9 | 3.97 | -5 | 77 | 49 | 78 | 0.10 | -70 | 7 | 09/16/2025 08:30 PM |
| 52193 | 14.9 | 3.97 | -5 | 77 | 50 | 79 | 0.00 | -69 | 8 | 09/16/2025 08:15 PM |
| 52192 | 14.9 | 3.97 | -5 | 78 | 52 | 79 | 0.00 | -69 | 8 | 09/16/2025 08:00 PM |
| 52191 | 14.9 | 4.03 | -5 | 79 | 53 | 79 | 0.00 | -69 | 7 | 09/16/2025 07:45 PM |
| 52190 | 14.9 | 3.97 | -5 | 82 | 55 | 78 | 0.20 | -69 | 7 | 09/16/2025 07:30 PM |
| 52189 | 14.9 | 3.96 | -10 | 86 | 56 | 83 | 3.30 | -70 | 7 | 09/16/2025 07:15 PM |
| 52188 | 14.9 | 3.98 | 0 | 92 | 55 | 87 | 4.60 | -70 | 8 | 09/16/2025 07:00 PM |
| 52187 | 14.9 | 4.05 | 6 | 98 | 52 | 91 | 4.60 | -70 | 7 | 09/16/2025 06:45 PM |
| 52186 | 14.9 | 4.08 | 0 | 101 | 51 | 94 | 4.60 | -71 | 8 | 09/16/2025 06:30 PM |
| 52185 | 15.0 | 4.08 | 41 | 104 | 50 | 94 | 4.60 | -70 | 8 | 09/16/2025 06:15 PM |
| 52184 | 14.9 | 4.12 | 5 | 106 | 49 | 98 | 5.10 | -71 | 8 | 09/16/2025 06:00 PM |
| 52183 | 15.0 | 4.05 | 5 | 108 | 48 | 96 | 5.10 | -71 | 8 | 09/16/2025 05:45 PM |
| 52182 | 15.0 | 4.01 | 5 | 109 | 48 | 101 | 5.10 | -71 | 8 | 09/16/2025 05:30 PM |
| 52181 | 15.1 | 4.01 | 0 | 111 | 47 | 96 | 5.10 | -71 | 7 | 09/16/2025 05:15 PM |
| 52180 | 15.1 | 4.01 | 0 | 111 | 47 | 100 | 5.10 | -71 | 8 | 09/16/2025 05:00 PM |
| 52179 | 15.0 | 4.02 | 5 | 111 | 47 | 97 | 5.10 | -73 | 8 | 09/16/2025 04:45 PM |
| 52178 | 15.1 | 4.01 | 0 | 112 | 47 | 97 | 5.10 | -72 | 8 | 09/16/2025 04:30 PM |
| 52177 | 15.1 | 4.01 | 0 | 114 | 46 | 98 | 5.10 | -71 | 7 | 09/16/2025 04:15 PM |
| 52176 | 15.1 | 4.03 | 0 | 116 | 44 | 104 | 5.20 | -71 | 8 | 09/16/2025 04:00 PM |
| 52175 | 15.2 | 4.10 | 5 | 115 | 43 | 103 | 5.10 | -72 | 7 | 09/16/2025 03:45 PM |
| 52174 | 15.1 | 4.01 | 0 | 114 | 43 | 101 | 5.10 | -72 | 7 | 09/16/2025 03:30 PM |
| 52173 | 15.1 | 4.01 | 5 | 114 | 42 | 101 | 5.20 | -71 | 8 | 09/16/2025 03:15 PM |
| 52172 | 15.1 | 4.01 | 5 | 112 | 43 | 97 | 5.20 | -72 | 8 | 09/16/2025 03:00 PM |
| 52171 | 15.2 | 4.01 | 0 | 112 | 42 | 97 | 5.20 | -72 | 8 | 09/16/2025 02:45 PM |
| 52170 | 15.2 | 4.01 | 0 | 111 | 41 | 98 | 5.20 | -71 | 7 | 09/16/2025 02:30 PM |